TimeCDT,TemperatureF,Dew PointF,Humidity,Sea Level PressureIn,VisibilityMPH,Wind Direction,Wind SpeedMPH,Gust SpeedMPH,PrecipitationIn,Events,Conditions,WindDirDegrees,DateUTC
12:35 AM,42.8,42.8,100,29.87,1.8,Calm,Calm,-,N/A,,Mostly Cloudy,0,2013-10-23 05:35:00
12:55 AM,42.8,42.8,100,29.86,4.0,SSW,4.6,-,N/A,,Partly Cloudy,210,2013-10-23 05:55:00
1:15 AM,42.8,42.8,100,29.86,2.0,SSW,3.5,-,N/A,,Partly Cloudy,200,2013-10-23 06:15:00
1:35 AM,44.6,44.6,100,29.87,2.0,SW,3.5,-,N/A,,Overcast,230,2013-10-23 06:35:00
1:55 AM,44.6,44.6,100,29.86,1.5,Calm,Calm,-,N/A,,Mostly Cloudy,0,2013-10-23 06:55:00
2:15 AM,44.6,44.6,100,29.85,6.0,Calm,Calm,-,N/A,,Scattered Clouds,0,2013-10-23 07:15:00
2:35 AM,46.4,44.6,93,29.85,8.0,Calm,Calm,-,N/A,,Mostly Cloudy,0,2013-10-23 07:35:00
2:55 AM,44.6,44.6,100,29.84,7.0,Calm,Calm,-,N/A,,Mostly Cloudy,0,2013-10-23 07:55:00
3:15 AM,42.8,42.8,100,29.85,2.5,Calm,Calm,-,N/A,,Partly Cloudy,0,2013-10-23 08:15:00
3:35 AM,42.8,41.0,93,29.85,1.5,Calm,Calm,-,N/A,,Mostly Cloudy,0,2013-10-23 08:35:00
3:55 AM,42.8,41.0,93,29.85,5.0,WSW,3.5,-,N/A,,Partly Cloudy,250,2013-10-23 08:55:00
4:15 AM,42.8,41.0,93,29.86,10.0,West,3.5,-,N/A,,Partly Cloudy,260,2013-10-23 09:15:00
4:35 AM,44.6,42.8,93,29.86,10.0,Calm,Calm,-,N/A,,Clear,0,2013-10-23 09:35:00
4:55 AM,42.8,41.0,93,29.86,10.0,Calm,Calm,-,N/A,,Clear,0,2013-10-23 09:55:00
5:15 AM,42.8,41.0,93,29.87,10.0,NW,4.6,-,N/A,,Clear,310,2013-10-23 10:15:00
5:35 AM,42.8,41.0,93,29.88,10.0,NW,6.9,-,N/A,,Scattered Clouds,310,2013-10-23 10:35:00
5:55 AM,42.8,41.0,93,29.90,10.0,Variable,4.6,-,N/A,,Mostly Cloudy,0,2013-10-23 10:55:00
6:15 AM,42.8,39.2,87,29.91,10.0,NW,5.8,-,N/A,,Mostly Cloudy,310,2013-10-23 11:15:00
6:35 AM,42.8,39.2,87,29.91,10.0,WNW,5.8,-,N/A,,Overcast,300,2013-10-23 11:35:00
6:55 AM,42.8,41.0,93,29.92,10.0,WNW,5.8,-,N/A,,Overcast,290,2013-10-23 11:55:00
7:15 AM,42.8,39.2,87,29.92,10.0,Variable,6.9,-,N/A,,Overcast,0,2013-10-23 12:15:00
7:35 AM,42.8,39.2,87,29.94,10.0,Variable,5.8,-,N/A,,Overcast,0,2013-10-23 12:35:00
7:55 AM,42.8,39.2,87,29.95,10.0,WNW,5.8,-,N/A,,Overcast,300,2013-10-23 12:55:00
8:15 AM,42.8,37.4,81,29.97,10.0,NW,12.7,-,N/A,,Overcast,320,2013-10-23 13:15:00
8:35 AM,41.0,35.6,81,29.99,10.0,NW,9.2,-,N/A,,Overcast,310,2013-10-23 13:35:00
8:55 AM,41.0,35.6,81,30.00,10.0,Variable,4.6,-,N/A,,Overcast,0,2013-10-23 13:55:00
9:15 AM,39.2,33.8,81,30.01,10.0,WNW,9.2,-,N/A,,Overcast,300,2013-10-23 14:15:00
9:35 AM,41.0,33.8,76,30.01,10.0,NW,8.1,-,N/A,,Overcast,320,2013-10-23 14:35:00
9:55 AM,41.0,33.8,76,30.02,10.0,NW,11.5,-,N/A,,Overcast,310,2013-10-23 14:55:00
10:15 AM,41.0,35.6,81,30.03,10.0,NNW,6.9,-,N/A,,Overcast,330,2013-10-23 15:15:00
10:35 AM,42.8,33.8,70,30.04,10.0,Variable,5.8,-,N/A,,Overcast,0,2013-10-23 15:35:00
10:55 AM,42.8,33.8,70,30.06,10.0,Variable,5.8,-,N/A,,Overcast,0,2013-10-23 15:55:00
11:15 AM,42.8,33.8,70,30.05,10.0,NW,8.1,-,N/A,,Overcast,310,2013-10-23 16:15:00
11:35 AM,42.8,33.8,70,30.05,10.0,NW,6.9,-,N/A,,Overcast,310,2013-10-23 16:35:00
11:55 AM,44.6,35.6,71,30.06,10.0,NW,9.2,-,N/A,,Overcast,320,2013-10-23 16:55:00
12:15 PM,42.8,33.8,70,30.06,10.0,NW,10.4,-,N/A,,Overcast,320,2013-10-23 17:15:00
12:35 PM,44.6,33.8,66,30.05,10.0,NNW,10.4,-,N/A,,Mostly Cloudy,340,2013-10-23 17:35:00
12:55 PM,44.6,32.0,61,30.06,10.0,WNW,12.7,-,N/A,,Overcast,300,2013-10-23 17:55:00
1:15 PM,44.6,32.0,61,30.05,10.0,NNW,8.1,-,N/A,,Overcast,330,2013-10-23 18:15:00
1:35 PM,46.4,32.0,57,30.05,10.0,Variable,5.8,-,N/A,,Mostly Cloudy,0,2013-10-23 18:35:00
1:55 PM,48.2,33.8,58,30.05,10.0,NW,10.4,-,N/A,,Mostly Cloudy,310,2013-10-23 18:55:00
2:15 PM,46.4,32.0,57,30.05,10.0,NNW,9.2,-,N/A,,Overcast,330,2013-10-23 19:15:00
2:35 PM,48.2,32.0,54,30.06,10.0,WNW,10.4,-,N/A,,Overcast,290,2013-10-23 19:35:00
2:55 PM,48.2,32.0,54,30.05,10.0,North,8.1,-,N/A,,Overcast,350,2013-10-23 19:55:00
3:15 PM,46.4,32.0,57,30.06,10.0,NW,5.8,-,N/A,,Mostly Cloudy,320,2013-10-23 20:15:00
3:35 PM,46.4,30.2,53,30.06,10.0,WNW,5.8,-,N/A,,Partly Cloudy,300,2013-10-23 20:35:00
3:55 PM,46.4,32.0,57,30.07,10.0,Variable,6.9,-,N/A,,Clear,0,2013-10-23 20:55:00
4:15 PM,46.4,32.0,57,30.07,10.0,Variable,5.8,-,N/A,,Partly Cloudy,0,2013-10-23 21:15:00
4:35 PM,46.4,32.0,57,30.07,10.0,Variable,4.6,-,N/A,,Scattered Clouds,0,2013-10-23 21:35:00
4:55 PM,46.4,32.0,57,30.07,10.0,NW,6.9,-,N/A,,Partly Cloudy,310,2013-10-23 21:55:00
5:15 PM,44.6,32.0,61,30.08,10.0,Calm,Calm,-,N/A,,Clear,0,2013-10-23 22:15:00
5:35 PM,42.8,32.0,66,30.08,10.0,Calm,Calm,-,N/A,,Clear,0,2013-10-23 22:35:00
5:55 PM,39.2,33.8,81,30.08,10.0,Calm,Calm,-,N/A,,Clear,0,2013-10-23 22:55:00
6:15 PM,35.6,32.0,87,30.08,10.0,Calm,Calm,-,N/A,,Clear,0,2013-10-23 23:15:00
6:35 PM,33.8,30.2,87,30.09,10.0,Calm,Calm,-,N/A,,Clear,0,2013-10-23 23:35:00
6:55 PM,32.0,30.2,93,30.09,10.0,Calm,Calm,-,N/A,,Clear,0,2013-10-23 23:55:00
7:15 PM,30.2,30.2,100,30.09,10.0,Calm,Calm,-,N/A,,Clear,0,2013-10-24 00:15:00
7:35 PM,30.2,30.2,100,30.09,10.0,Calm,Calm,-,N/A,,Clear,0,2013-10-24 00:35:00
7:55 PM,33.8,30.2,87,30.09,10.0,Calm,Calm,-,N/A,,Clear,0,2013-10-24 00:55:00
8:15 PM,32.0,30.2,93,30.09,10.0,Calm,Calm,-,N/A,,Clear,0,2013-10-24 01:15:00
8:35 PM,30.2,28.4,93,30.09,10.0,Calm,Calm,-,N/A,,Clear,0,2013-10-24 01:35:00
8:55 PM,30.2,30.2,100,30.09,10.0,Calm,Calm,-,N/A,,Clear,0,2013-10-24 01:55:00
9:15 PM,30.2,28.4,93,30.10,10.0,Calm,Calm,-,N/A,,Clear,0,2013-10-24 02:15:00
9:35 PM,30.2,28.4,93,30.10,10.0,Calm,Calm,-,N/A,,Clear,0,2013-10-24 02:35:00
9:55 PM,30.2,30.2,100,30.10,10.0,Calm,Calm,-,N/A,,Clear,0,2013-10-24 02:55:00
10:15 PM,30.2,28.4,93,30.09,10.0,Calm,Calm,-,N/A,,Clear,0,2013-10-24 03:15:00
10:35 PM,28.4,28.4,100,30.11,10.0,Calm,Calm,-,N/A,,Partly Cloudy,0,2013-10-24 03:35:00
10:55 PM,30.2,30.2,100,30.10,10.0,Calm,Calm,-,N/A,,Partly Cloudy,0,2013-10-24 03:55:00
11:15 PM,32.0,32.0,100,30.10,10.0,Calm,Calm,-,N/A,,Clear,0,2013-10-24 04:15:00
11:35 PM,33.8,33.8,100,30.11,10.0,Calm,Calm,-,N/A,,Partly Cloudy,0,2013-10-24 04:35:00
11:55 PM,35.6,33.8,93,30.11,10.0,Calm,Calm,-,N/A,,Partly Cloudy,0,2013-10-24 04:55:00